| time (UTC) | temp F | wind direction | speed MPH | gust MPH | rain 1hr in | rain 24hr in | rain mn in | humidity % | barometer mb |
| 20260510194531 | 46 | 125 | 2.0 | 4.0 | 0.00 | 0.00 | 0.00 | 67 | 1016.2 |
| 20260510193032 | 47 | 142 | 2.0 | 5.0 | 0.00 | 0.00 | 0.00 | 64 | 1016.3 |
| 20260510191532 | 48 | 139 | 2.0 | 5.0 | 0.00 | 0.00 | 0.00 | 61 | 1016.4 |
| 20260510190031 | 49 | 129 | 1.0 | 4.0 | 0.00 | 0.00 | 0.00 | 59 | 1016.6 |
| 20260510184534 | 50 | 148 | 1.0 | 4.0 | 0.00 | 0.00 | 0.00 | 56 | 1016.8 |
| 20260510183032 | 51 | 141 | 2.0 | 6.0 | 0.00 | 0.00 | 0.00 | 55 | 1016.9 |
| 20260510181536 | 51 | 94 | 2.0 | 4.0 | 0.00 | 0.00 | 0.00 | 55 | 1016.9 |
| 20260510180031 | 52 | 88 | 0.0 | 7.0 | 0.00 | 0.00 | 0.00 | 51 | 1017.0 |
| 20260510174535 | 54 | 46 | 1.0 | 7.0 | 0.00 | 0.00 | 0.00 | 49 | 1017.1 |
| 20260510173031 | 53 | 54 | 2.0 | 9.0 | 0.00 | 0.00 | 0.00 | 51 | 1017.1 |
| 20260510171531 | 53 | 14 | 1.0 | 7.0 | 0.00 | 0.00 | 0.00 | 51 | 1017.4 |
| 20260510170031 | 54 | 49 | 2.0 | 11.0 | 0.00 | 0.00 | 0.00 | 50 | 1017.5 |
| 20260510164543 | 54 | 302 | 1.0 | 11.0 | 0.00 | 0.00 | 0.00 | 50 | 1017.7 |
| 20260510163030 | 54 | 113 | 1.0 | 8.0 | 0.00 | 0.00 | 0.00 | 52 | 1017.9 |
| 20260510161534 | 54 | 124 | 2.0 | 7.0 | 0.00 | 0.00 | 0.00 | 52 | 1018.1 |
| 20260510160032 | 55 | 158 | 4.0 | 9.0 | 0.00 | 0.00 | 0.00 | 51 | 1018.2 |
| 20260510154544 | 55 | 154 | 3.0 | 13.0 | 0.00 | 0.00 | 0.00 | 51 | 1018.3 |
| 20260510153032 | 56 | 139 | 3.0 | 8.0 | 0.00 | 0.00 | 0.00 | 50 | 1018.3 |
| 20260510151530 | 57 | 180 | 3.0 | 10.0 | 0.00 | 0.00 | 0.00 | 48 | 1018.4 |
| 20260510150040 | 57 | 243 | 0.0 | 9.0 | 0.00 | 0.00 | 0.00 | 50 | 1018.4 |
| 20260510144540 | 57 | 299 | 2.0 | 7.0 | 0.00 | 0.00 | 0.00 | 49 | 1018.6 |
| 20260510143043 | 57 | 62 | 2.0 | 10.0 | 0.00 | 0.00 | 0.00 | 47 | 1018.7 |
| 20260510141534 | 57 | 229 | 3.0 | 9.0 | 0.00 | 0.00 | 0.00 | 48 | 1018.9 |
| 20260510140034 | 57 | 41 | 2.0 | 8.0 | 0.00 | 0.00 | 0.00 | 49 | 1019.1 |
| 20260510134530 | 57 | 3 | 3.0 | 7.0 | 0.00 | 0.00 | 0.00 | 48 | 1019.2 |
| 20260510133034 | 57 | 160 | 3.0 | 11.0 | 0.00 | 0.00 | 0.00 | 48 | 1019.2 |
| 20260510131544 | 56 | 25 | 2.0 | 9.0 | 0.00 | 0.00 | 0.00 | 51 | 1019.3 |
| 20260510130033 | 57 | 280 | 3.0 | 9.0 | 0.00 | 0.00 | 0.00 | 53 | 1019.4 |
| 20260510124530 | 56 | 147 | 2.0 | 13.0 | 0.00 | 0.00 | 0.00 | 54 | 1019.6 |
| 20260510123032 | 57 | 89 | 2.0 | 8.0 | 0.00 | 0.00 | 0.00 | 53 | 1019.6 |
| 20260510121538 | 55 | 22 | 2.0 | 9.0 | 0.00 | 0.00 | 0.00 | 52 | 1019.7 |
| 20260510120035 | 55 | 233 | 2.0 | 11.0 | 0.00 | 0.00 | 0.00 | 53 | 1019.8 |
| 20260510114536 | 57 | 137 | 3.0 | 9.0 | 0.00 | 0.00 | 0.00 | 53 | 1020.2 |
| 20260510113031 | 56 | 172 | 5.0 | 14.0 | 0.00 | 0.00 | 0.00 | 55 | 1020.3 |
| 20260510111531 | 54 | 137 | 2.0 | 9.0 | 0.00 | 0.00 | 0.00 | 58 | 1020.5 |
| 20260510110034 | 54 | 209 | 3.0 | 10.0 | 0.00 | 0.00 | 0.00 | 59 | 1020.6 |
| 20260510104532 | 55 | 64 | 4.0 | 14.0 | 0.00 | 0.00 | 0.00 | 56 | 1020.7 |
| 20260510103036 | 54 | 177 | 2.0 | 8.0 | 0.00 | 0.00 | 0.00 | 60 | 1020.9 |
| 20260510101532 | 54 | 310 | 3.0 | 11.0 | 0.00 | 0.00 | 0.00 | 60 | 1021.0 |
| 20260510100034 | 54 | 165 | 5.0 | 10.0 | 0.00 | 0.00 | 0.00 | 60 | 1021.0 |
| 20260510094535 | 51 | 156 | 5.0 | 12.0 | 0.00 | 0.00 | 0.00 | 65 | 1021.1 |
| 20260510093032 | 51 | 128 | 3.0 | 8.0 | 0.00 | 0.00 | 0.00 | 67 | 1021.3 |
| 20260510091533 | 51 | 177 | 1.0 | 9.0 | 0.00 | 0.00 | 0.00 | 70 | 1021.5 |
| 20260510090033 | 50 | 58 | 2.0 | 8.0 | 0.00 | 0.00 | 0.00 | 71 | 1021.5 |
| 20260510084535 | 50 | 148 | 3.0 | 10.0 | 0.00 | 0.00 | 0.00 | 73 | 1021.4 |
| 20260510083030 | 50 | 212 | 2.0 | 11.0 | 0.00 | 0.00 | 0.00 | 75 | 1021.3 |
| 20260510081532 | 50 | 15 | 1.0 | 8.0 | 0.00 | 0.00 | 0.00 | 73 | 1021.3 |
| 20260510080034 | 50 | 0 | 1.0 | 8.0 | 0.00 | 0.00 | 0.00 | 75 | 1021.2 |
| 20260510074536 | 49 | 148 | 2.0 | 10.0 | 0.00 | 0.00 | 0.00 | 76 | 1021.4 |
| 20260510073037 | 49 | 0 | 1.0 | 9.0 | 0.00 | 0.00 | 0.00 | 76 | 1021.3 |
| 20260510071531 | 48 | 55 | 2.0 | 8.0 | 0.00 | 0.00 | 0.00 | 77 | 1021.3 |
| 20260510070032 | 48 | 142 | 2.0 | 10.0 | 0.00 | 0.00 | 0.00 | 77 | 1021.1 |
| 20260510064545 | 47 | 192 | 2.0 | 6.0 | 0.00 | 0.00 | 0.00 | 78 | 1021.3 |
| 20260510063032 | 47 | 150 | 1.0 | 8.0 | 0.00 | 0.00 | 0.00 | 79 | 1021.1 |
| 20260510061533 | 47 | 293 | 3.0 | 10.0 | 0.00 | 0.00 | 0.00 | 80 | 1021.1 |
| 20260510060036 | 46 | 221 | 1.0 | 8.0 | 0.00 | 0.00 | 0.00 | 82 | 1021.0 |
| 20260510054532 | 46 | 269 | 2.0 | 10.0 | 0.00 | 0.00 | 0.00 | 83 | 1021.0 |
| 20260510053042 | 46 | 261 | 1.0 | 8.0 | 0.00 | 0.00 | 0.00 | 83 | 1021.1 |
| 20260510051545 | 46 | 285 | 1.0 | 5.0 | 0.00 | 0.00 | 0.00 | 83 | 1021.1 |
| 20260510050032 | 46 | 299 | 1.0 | 7.0 | 0.00 | 0.00 | 0.00 | 83 | 1021.2 |
| 20260510044535 | 46 | 168 | 1.0 | 6.0 | 0.00 | 0.00 | 0.00 | 83 | 1021.1 |
| 20260510043032 | 46 | 315 | 1.0 | 7.0 | 0.00 | 0.00 | 0.00 | 83 | 1020.9 |
| 20260510041534 | 46 | 57 | 1.0 | 8.0 | 0.00 | 0.00 | 0.00 | 84 | 1020.9 |
| 20260510040036 | 47 | 154 | 1.0 | 6.0 | 0.00 | 0.00 | 0.00 | 85 | 1021.1 |
| 20260510034532 | 47 | 212 | 1.0 | 10.0 | 0.00 | 0.00 | 0.00 | 85 | 1021.4 |
| 20260510033032 | 47 | 0 | 2.0 | 8.0 | 0.00 | 0.00 | 0.00 | 85 | 1021.5 |
| 20260510031533 | 47 | 164 | 2.0 | 7.0 | 0.00 | 0.00 | 0.00 | 85 | 1021.6 |
| 20260510030031 | 47 | 345 | 1.0 | 7.0 | 0.00 | 0.00 | 0.00 | 85 | 1021.6 |
| 20260510024532 | 48 | 176 | 1.0 | 7.0 | 0.00 | 0.00 | 0.00 | 85 | 1021.5 |
| 20260510023032 | 48 | 0 | 1.0 | 6.0 | 0.00 | 0.00 | 0.00 | 86 | 1021.7 |
| 20260510021534 | 48 | 25 | 1.0 | 6.0 | 0.00 | 0.00 | 0.00 | 86 | 1021.7 |
| 20260510020032 | 48 | 131 | 2.0 | 7.0 | 0.00 | 0.00 | 0.00 | 85 | 1021.6 |
| 20260510014535 | 48 | 272 | 1.0 | 5.0 | 0.00 | 0.00 | 0.00 | 86 | 1021.3 |
| 20260510013035 | 48 | 0 | 1.0 | 6.0 | 0.00 | 0.00 | 0.00 | 86 | 1021.1 |
| 20260510011531 | 48 | 258 | 1.0 | 9.0 | 0.00 | 0.00 | 0.00 | 86 | 1021.1 |
| 20260510010030 | 49 | 14 | 1.0 | 5.0 | 0.00 | 0.00 | 0.00 | 86 | 1021.3 |
| 20260510004532 | 49 | 56 | 1.0 | 8.0 | 0.00 | 0.00 | 0.00 | 86 | 1021.4 |
| 20260510003037 | 49 | 324 | 2.0 | 8.0 | 0.00 | 0.00 | 0.00 | 86 | 1021.6 |
| 20260510001534 | 49 | 183 | 2.0 | 8.0 | 0.00 | 0.00 | 0.00 | 87 | 1021.6 |
| 20260510000034 | 49 | 0 | 1.0 | 4.0 | 0.00 | 0.00 | 0.00 | 86 | 1021.8 |
| 20260509234533 | 49 | 316 | 2.0 | 7.0 | 0.00 | 0.00 | 0.00 | 86 | 1021.7 |
| 20260509233032 | 49 | 189 | 1.0 | 9.0 | 0.00 | 0.00 | 0.00 | 86 | 1021.6 |
| 20260509231535 | 49 | 304 | 1.0 | 9.0 | 0.00 | 0.00 | 0.00 | 87 | 1021.5 |
| 20260509230034 | 49 | 293 | 1.0 | 5.0 | 0.00 | 0.00 | 0.00 | 88 | 1021.5 |
| 20260509224534 | 49 | 285 | 0.0 | 6.0 | 0.00 | 0.00 | 0.00 | 88 | 1021.5 |
| 20260509223032 | 48 | 201 | 1.0 | 9.0 | 0.00 | 0.00 | 0.00 | 88 | 1021.5 |
| 20260509221534 | 48 | 16 | 1.0 | 7.0 | 0.00 | 0.00 | 0.00 | 87 | 1021.5 |
| 20260509220040 | 49 | 216 | 1.0 | 6.0 | 0.00 | 0.00 | 0.00 | 86 | 1021.5 |
| 20260509214533 | 49 | 285 | 0.0 | 4.0 | 0.00 | 0.00 | 0.00 | 87 | 1021.4 |
| 20260509213035 | 49 | 358 | 0.0 | 4.0 | 0.00 | 0.00 | 0.00 | 87 | 1021.3 |
| 20260509211534 | 49 | 321 | 1.0 | 5.0 | 0.00 | 0.00 | 0.00 | 86 | 1021.4 |
| 20260509210039 | 50 | 1 | 1.0 | 4.0 | 0.00 | 0.00 | 0.00 | 83 | 1021.4 |
| 20260509204534 | 50 | 0 | 0.0 | 4.0 | 0.00 | 0.00 | 0.00 | 82 | 1021.4 |
| 20260509203037 | 51 | 0 | 1.0 | 4.0 | 0.00 | 0.00 | 0.00 | 81 | 1021.2 |
| 20260509201532 | 52 | 170 | 1.0 | 8.0 | 0.00 | 0.00 | 0.00 | 79 | 1020.9 |
| 20260509200038 | 53 | 220 | 1.0 | 9.0 | 0.00 | 0.00 | 0.00 | 75 | 1020.8 |